Terug naar catalogus

TELSTAR 3C R/B

PAM-D

ActiefHEO
NORAD 15246·ROCKET BODY·🇺🇸 United States

Gelanceerd Aug 30, 1984 vanaf Cape Canaveral Space Force Station

Loading…

Volgende Passages (komende 24 uur)

TLE

VersSource: Space-Track

Epoch: Sep 14, 2026, 10:37 UTC

1 15246U 84093G   26257.44251637  .00000825  00000-0  17660-2 0  9993
2 15246  24.7125 214.4551 7045185 347.5793   1.3869  2.51491497359625

Volg TELSTAR 3C R/B in realtime met AllMySat

Download on the App Store